sat.trackr.live / text

‹ back to catalog

STARLINK-30810

NORAD 58178 · 2023-167D

PAYLOAD ACTIVE UNKNOWN

§ Identity

Operator
Country
US
Launch date
2023-10-30
Launch site
AFETR
Launch vehicle
Mass (kg)
RCS (m²)

Purposes: comms

External: N2YO · Heavens-Above · Gunter

§ Orbital elements

Epoch: 2026-09-20T23:00:25.587936Z

Period
94.27 min
Inclination
43.0015°
Eccentricity
0.0001113
Mean motion
15.27579866 rev/d
Perigee alt
482.3 km
Apogee alt
483.8 km
Semi-major
6,861.2 km
B*
2.6785e-5
RAAN
120.2285°
Arg perigee
271.9091°
Mean anomaly
88.1634°
Rev number
16,085

§ Raw data

STARLINK-308101 58178U 23167D   26263.95862949  .00000475  00000+0  26785-4 0  99962 58178  43.0015 120.2285 0001113 271.9091  88.1634 15.27579866160855

JSON: /api/v1/satellites/58178 · /tle

For live sub-satellite position, see the globe view (requires WebGL).

§ Visibility from observer

Set your observer location to see the next 7 days of passes ≥ 10°. The values pass through the URL so the page stays shareable.

No JS? Fill the form by hand. The geolocation button needs JavaScript.